World > North America > United States > Virginia
Hourly Weather in Peaks of Otter Lake, VirginiaPeaks of Otter Lake, Virginia Hourly Weather

Peaks of Otter Lake, VA Hourly Weather

Hourly Weather Peaks of Otter Lake, VirginiaHourly Weather in Peaks of Otter Lake, VA
Lat: 37.45N, Lon: 79.6W  ICAO: KROA
Web Search
Peaks of Otter Lake Weather Warning NWS WEATHER ALERT FOR THE PEAKS OF OTTER LAKE, VA AREA - Issued: 330 PM EDT Wed Sep 22 2021 Peaks of Otter Lake Weather Warning  

Helpful Tip: Type the letters wx in the search engine next time you need to find us.

Feedback

Peaks of Otter Lake Hourly Weather

36 Hour Weather Scroll   °F Click to change Peaks of Otter Lake hourly weather to Imperial units.Click to change Peaks of Otter Lake hourly weather to Metric units. °C
Currently, Overcast, temperature is 74°F23°C, dew point 71°F22°C, humidity 91%. Wind direction is S at 7 mph11 km/h with visibility of 2.00 mi3 km. Barometric pressure is 29.77 in1008 mb.

Sep 22
4:00 PM

Sep 22
5:00 PM

Sep 22
6:00 PM

Sep 22
7:00 PM

Sep 22
8:00 PM

Sep 22
9:00 PM

Sep 22
10:00 PM

Sep 22
11:00 PM

Sep 23
MIDNIGHT

Sep 23
1:00 AM

Sep 23
2:00 AM

Sep 23
3:00 AM

Sep 23
4:00 AM

Sep 23
5:00 AM

Sep 23
6:00 AM

Sep 23
7:00 AM

Sep 23
8:00 AM

Sep 23
9:00 AM

Sep 23
10:00 AM

Sep 23
11:00 AM

Sep 23
NOON

Sep 23
1:00 PM

Sep 23
2:00 PM

Sep 23
3:00 PM

Sep 23
4:00 PM

Sep 23
5:00 PM

Sep 23
6:00 PM

Sep 23
7:00 PM

Sep 23
8:00 PM

Sep 23
9:00 PM

Sep 23
10:00 PM

Sep 23
11:00 PM

Sep 24
MIDNIGHT

Sep 24
1:00 AM

Sep 24
2:00 AM

Sep 24
3:00 AM
Cloudy Cloudy Cloudy Cloudy Cloudy Cloudy Cloudy Cloudy Cloudy Cloudy Cloudy Cloudy Cloudy Cloudy Cloudy Partly Cloudy Partly Cloudy Partly Cloudy Clear Clear Clear Clear Clear Clear Clear Clear Clear Clear Clear Clear Clear Clear Clear Clear Clear Clear
Cloudy Cloudy Cloudy Cloudy Cloudy Cloudy Cloudy Cloudy Cloudy Cloudy Cloudy Cloudy Cloudy Cloudy Cloudy Partly Cloudy Partly Cloudy Partly Cloudy Clear Clear Clear Clear Clear Clear Clear Clear Clear Clear Clear Clear Clear Clear Clear Clear Clear Clear
70°F21°C 69°F21°C 67°F19°C 66°F19°C 64°F18°C 63°F17°C 63°F17°C 62°F17°C 61°F16°C 61°F16°C 60°F16°C 59°F15°C 59°F15°C 58°F14°C 58°F14°C 57°F14°C 57°F14°C 59°F15°C 62°F17°C 64°F18°C 66°F19°C 67°F19°C 69°F21°C 69°F21°C 70°F21°C 70°F21°C 67°F19°C 65°F18°C 62°F17°C 60°F16°C 59°F15°C 57°F14°C 56°F13°C 54°F12°C 53°F12°C 52°F11°C
Rain Rain Rain Rain Rain Rain Rain Rain Rain Rain Rain Rain Rain Rain Rain Rain Rain - - - - - - - - - - - - - - - - - - -
91% 91% 91% 91% 91% 78% 78% 78% 78% 78% 78% 21% 21% 21% 21% 21% 21% 8% 8% 8% 8% 8% 8% 8% 8% 8% 8% 8% 8% 4% 4% 4% 4% 4% 4% 6%
69°F21°C 68°F20°C 67°F19°C 65°F18°C 64°F18°C 63°F17°C 62°F17°C 61°F16°C 60°F16°C 59°F15°C 58°F14°C 57°F14°C 55°F13°C 54°F12°C 53°F12°C 52°F11°C 51°F11°C 50°F10°C 49°F9°C 48°F9°C 47°F8°C 45°F7°C 44°F7°C 43°F6°C 42°F6°C 41°F5°C 41°F5°C 41°F5°C 41°F5°C 41°F5°C 42°F6°C 42°F6°C 42°F6°C 43°F6°C 43°F6°C 43°F6°C
97% 97% 100% 97% 100% 100% 97% 97% 97% 93% 93% 93% 87% 87% 83% 83% 80% 72% 62% 56% 50% 45% 41% 39% 36% 35% 39% 41% 46% 49% 53% 57% 59% 66% 69% 71%
SE SE S SW SSW W WNW NW NW NW NW NW NW NW NW WNW WNW WNW WNW WNW WNW NW NW NW NW NW NW NW NW NW NW NW NW NW NW NW
9 mph 9 mph 9 mph 7 mph 7 mph 7 mph 7 mph 7 mph 7 mph 7 mph 7 mph 7 mph 7 mph 7 mph 7 mph 8 mph 8 mph 8 mph 16 mph 16 mph 16 mph 12 mph 12 mph 12 mph 7 mph 7 mph 7 mph 6 mph 6 mph 6 mph 3 mph 3 mph 3 mph 5 mph 5 mph 5 mph
3 mi5 km 3 mi5 km 3 mi5 km 5 mi8 km 5 mi8 km 5 mi8 km 5 mi8 km 5 mi8 km 3 mi5 km .75 mi1 km .5 mi1 km .75 mi1 km 3 mi5 km 5 mi8 km 6 mi10 km 6 mi10 km 10 mi16 km 10 mi16 km 10 mi16 km 10 mi16 km 10 mi16 km 10 mi16 km 10 mi16 km 10 mi16 km 10 mi16 km 10 mi16 km 10 mi16 km 10 mi16 km 10 mi16 km 10 mi16 km 10 mi16 km 10 mi16 km 10 mi16 km 10 mi16 km 10 mi16 km 10 mi16 km
Hour (EDT)
Weather
Clouds
Temperature
Precip. Type
POP
Dewpoint
Humidity
Wind Direction
Wind Speed
Visibility
POP = Probability of Precipitation. ** Indicates missing data/values from model statistics.

24 Hour Forecast

Today - Showers and thunderstorms. Some thunderstorms May produce heavy rainfall. Near steady temperature in the mid 70s. South winds around 10 mph with gusts up to 20 mph. Chance of rain near 100%.
Tonight - Showers with thunderstorms likely in the evening, then a chance of showers and thunderstorms after midnight. Patchy fog. Some thunderstorms May produce heavy rainfall in the evening. Some thunderstorms May produce heavy rainfall after midnight. Cooler with lows in the mid 50s. Southwest winds around 10 mph with gusts up to 20 mph, becoming west after midnight. Chance of rain near 100%.

48 Hour Forecast API Feed


Wed, Sep 22
4:00 pm

Wed, Sep 22
5:00 pm

Wed, Sep 22
6:00 pm

Wed, Sep 22
7:00 pm

Wed, Sep 22
8:00 pm

Wed, Sep 22
9:00 pm

Wed, Sep 22
10:00 pm

Wed, Sep 22
11:00 pm

Thu, Sep 23
Midnight

Thu, Sep 23
1:00 am

Thu, Sep 23
2:00 am

Thu, Sep 23
3:00 am

Thu, Sep 23
4:00 am

Thu, Sep 23
5:00 am

Thu, Sep 23
6:00 am

Thu, Sep 23
7:00 am

Thu, Sep 23
8:00 am

Thu, Sep 23
9:00 am

Thu, Sep 23
10:00 am

Thu, Sep 23
11:00 am

Thu, Sep 23
Noon

Thu, Sep 23
1:00 pm

Thu, Sep 23
2:00 pm

Thu, Sep 23
3:00 pm

Thu, Sep 23
4:00 pm

Thu, Sep 23
5:00 pm

Thu, Sep 23
6:00 pm

Thu, Sep 23
7:00 pm

Thu, Sep 23
8:00 pm

Thu, Sep 23
9:00 pm

Thu, Sep 23
10:00 pm

Thu, Sep 23
11:00 pm

Fri, Sep 24
Midnight

Fri, Sep 24
1:00 am

Fri, Sep 24
2:00 am

Fri, Sep 24
3:00 am

Fri, Sep 24
4:00 am

Fri, Sep 24
5:00 am

Fri, Sep 24
6:00 am

Fri, Sep 24
7:00 am

Fri, Sep 24
8:00 am

Fri, Sep 24
9:00 am

Fri, Sep 24
10:00 am

Fri, Sep 24
11:00 am

Fri, Sep 24
Noon

Fri, Sep 24
1:00 pm

Fri, Sep 24
2:00 pm

Fri, Sep 24
3:00 pm
MistModerate Or Heavy Rain ShowerLight Rain ShowerLight Rain ShowerModerate Or Heavy Rain ShowerLight Rain ShowerLight Rain ShowerLight Rain ShowerLight Rain ShowerLight Rain ShowerCloudyPatchy Rain PossiblePartly CloudyPatchy Rain PossiblePartly CloudyPartly CloudyPartly CloudyPartly CloudySunnySunnySunnySunnySunnySunnyPartly CloudyPartly CloudyPartly CloudySunnyClearClearClearClearClearClearClearClearClearClearClearClearSunnySunnySunnySunnySunnySunnySunnyPartly Cloudy
Mist Moderate rain showers Light rain showers Light rain showers Moderate rain showers Light rain showers Light rain showers Light rain showers Light rain showers Light rain showers Cloudy Patchy rain possible Partly cloudy Patchy rain possible Partly cloudy Partly cloudy Partly cloudy Partly cloudy Sunny Sunny Sunny Sunny Sunny Sunny Partly cloudy Partly cloudy Partly cloudy Sunny Clear Clear Clear Clear Clear Clear Clear Clear Clear Clear Clear Clear Sunny Sunny Sunny Sunny Sunny Sunny Sunny Partly cloudy
72°F
22°C
71°F
22°C
71°F
22°C
69°F
21°C
61°F
16°C
59°F
15°C
59°F
15°C
60°F
15°C
58°F
15°C
58°F
14°C
58°F
14°C
58°F
14°C
58°F
14°C
57°F
14°C
55°F
13°C
53°F
12°C
54°F
12°C
57°F
14°C
61°F
16°C
67°F
19°C
69°F
21°C
71°F
22°C
73°F
23°C
75°F
24°C
74°F
24°C
73°F
23°C
70°F
21°C
65°F
18°C
56°F
13°C
53°F
12°C
52°F
11°C
51°F
11°C
50°F
10°C
49°F
9°C
48°F
9°C
48°F
9°C
47°F
9°C
47°F
8°C
46°F
8°C
45°F
7°C
48°F
9°C
56°F
13°C
61°F
16°C
68°F
20°C
71°F
22°C
74°F
23°C
76°F
24°C
76°F
24°C
71°F
21°C
70°F
21°C
70°F
21°C
69°F
20°C
60°F
15°C
57°F
14°C
56°F
14°C
57°F
14°C
56°F
14°C
56°F
13°C
56°F
13°C
55°F
13°C
55°F
13°C
53°F
12°C
52°F
11°C
50°F
10°C
50°F
10°C
50°F
10°C
47°F
8°C
49°F
10°C
49°F
9°C
48°F
9°C
47°F
8°C
47°F
8°C
45°F
7°C
46°F
8°C
48°F
9°C
48°F
9°C
41°F
5°C
41°F
5°C
40°F
5°C
40°F
5°C
40°F
5°C
40°F
5°C
40°F
5°C
40°F
5°C
41°F
5°C
41°F
5°C
41°F
5°C
41°F
5°C
42°F
6°C
45°F
7°C
45°F
7°C
46°F
8°C
46°F
8°C
46°F
8°C
47°F
8°C
46°F
8°C
29.83 in
1010 mb
29.8 in
1009 mb
29.8 in
1009 mb
29.83 in
1010 mb
29.85 in
1011 mb
29.88 in
1012 mb
29.88 in
1012 mb
29.88 in
1012 mb
29.85 in
1011 mb
29.88 in
1012 mb
29.88 in
1012 mb
29.85 in
1011 mb
29.85 in
1011 mb
29.85 in
1011 mb
29.88 in
1012 mb
29.91 in
1013 mb
29.91 in
1013 mb
29.91 in
1013 mb
29.91 in
1013 mb
29.91 in
1013 mb
29.91 in
1013 mb
29.91 in
1013 mb
29.91 in
1013 mb
29.88 in
1012 mb
29.91 in
1013 mb
29.91 in
1013 mb
29.94 in
1014 mb
29.97 in
1015 mb
30 in
1016 mb
30 in
1016 mb
30.03 in
1017 mb
30.03 in
1017 mb
30.03 in
1017 mb
30.03 in
1017 mb
30.03 in
1017 mb
30.03 in
1017 mb
30.06 in
1018 mb
30.06 in
1018 mb
30.09 in
1019 mb
30.09 in
1019 mb
30.12 in
1020 mb
30.12 in
1020 mb
30.12 in
1020 mb
30.12 in
1020 mb
30.12 in
1020 mb
30.09 in
1019 mb
30.09 in
1019 mb
30.06 in
1018 mb
97%97%96%97%94%93%91%92%92%93%92%92%91%88%87%88%86%76%61%54%48%43%40%36%35%37%45%54%57%62%64%66%69%72%73%76%78%80%82%84%80%66%56%47%40%37%35%35%
SSSSSWNWNWWNWWWNWNWNWNWWNWWNWWNWWNWNWNWNWNWNWWNWNWNWWNWNWNWNWNWNWNWNWNWNWNWNWNWNWNWNWNWNWNWNWNWNWNWNW
7 mph
12 km/h
6 mph
10 km/h
7 mph
11 km/h
5 mph
8 km/h
11 mph
18 km/h
9 mph
14 km/h
6 mph
10 km/h
4 mph
6 km/h
7 mph
11 km/h
6 mph
9 km/h
4 mph
7 km/h
5 mph
8 km/h
7 mph
12 km/h
9 mph
14 km/h
7 mph
12 km/h
9 mph
14 km/h
9 mph
14 km/h
9 mph
15 km/h
10 mph
16 km/h
11 mph
17 km/h
10 mph
17 km/h
11 mph
18 km/h
10 mph
17 km/h
9 mph
15 km/h
10 mph
15 km/h
9 mph
14 km/h
8 mph
13 km/h
9 mph
14 km/h
8 mph
13 km/h
6 mph
10 km/h
6 mph
9 km/h
5 mph
9 km/h
5 mph
9 km/h
6 mph
9 km/h
5 mph
9 km/h
5 mph
8 km/h
5 mph
8 km/h
5 mph
8 km/h
5 mph
8 km/h
4 mph
7 km/h
4 mph
6 km/h
4 mph
7 km/h
5 mph
9 km/h
6 mph
9 km/h
6 mph
9 km/h
5 mph
8 km/h
5 mph
8 km/h
4 mph
7 km/h
0%95%61%94%94%94%61%75%73%85%0%65%0%84%0%0%0%0%0%0%0%0%0%0%0%0%0%0%0%0%0%0%0%0%0%0%0%0%0%0%0%0%0%0%0%0%0%0%
1 mi
2 km
4 mi
7 km
6 mi
10 km
6 mi
10 km
4 mi
7 km
6 mi
10 km
6 mi
10 km
6 mi
10 km
6 mi
10 km
6 mi
10 km
6 mi
10 km
6 mi
10 km
6 mi
10 km
6 mi
10 km
6 mi
10 km
6 mi
10 km
6 mi
10 km
6 mi
10 km
6 mi
10 km
6 mi
10 km
6 mi
10 km
6 mi
10 km
6 mi
10 km
6 mi
10 km
6 mi
10 km
6 mi
10 km
6 mi
10 km
6 mi
10 km
6 mi
10 km
6 mi
10 km
6 mi
10 km
6 mi
10 km
6 mi
10 km
6 mi
10 km
6 mi
10 km
6 mi
10 km
6 mi
10 km
6 mi
10 km
6 mi
10 km
6 mi
10 km
6 mi
10 km
6 mi
10 km
6 mi
10 km
6 mi
10 km
6 mi
10 km
6 mi
10 km
6 mi
10 km
6 mi
10 km

Day/Time
Weather
Condition
Temperature
Dew Point
Pressure
Humidity
Wind Direction
Wind Speed
Prob Precip %
Visibility
Prob Precip % = Probability of Precipitation.